N2750B 3MI2-KPTK

Flight info

Callsign N2750B
Flight time 1h 25m
Altitude 7000
Route CUBKO TVC V133 MBS FNT
Aircraft C82R/L-VGD/C

Departure

Time 2026-04-23 15:32
Airport South Fox Island Airport (3MI2)

Arrival

Time 2026-04-23 16:58
Airport Oakland County International Airport (KPTK)
Time Latitude Longitude Altitude Speed Heading
2026-04-23 15:07 45.39519 -85.83063 638 ft 0 kts 88°
2026-04-23 15:25 45.39519 -85.83057 638 ft 2 kts 87°
2026-04-23 15:25 45.39513 -85.83011 639 ft 9 kts 97°
2026-04-23 15:26 45.39549 -85.82961 639 ft 10 kts 346°
2026-04-23 15:26 45.39619 -85.82975 638 ft 11 kts 353°
2026-04-23 15:26 45.39697 -85.82991 637 ft 12 kts 360°
2026-04-23 15:26 45.39778 -85.82999 637 ft 11 kts 351°
2026-04-23 15:27 45.39847 -85.83012 639 ft 9 kts 352°
2026-04-23 15:27 45.39901 -85.83023 640 ft 8 kts 349°
2026-04-23 15:27 45.39962 -85.83033 639 ft 10 kts 350°
2026-04-23 15:27 45.40041 -85.83049 637 ft 12 kts 355°
2026-04-23 15:28 45.40128 -85.83067 636 ft 13 kts 350°
2026-04-23 15:28 45.40210 -85.83083 638 ft 11 kts 353°
2026-04-23 15:28 45.40285 -85.83097 637 ft 11 kts 352°
2026-04-23 15:28 45.40362 -85.83112 636 ft 11 kts 353°
2026-04-23 15:29 45.40438 -85.83126 636 ft 11 kts 352°
2026-04-23 15:29 45.40507 -85.83139 637 ft 9 kts 351°
2026-04-23 15:29 45.40567 -85.83146 638 ft 8 kts 351°
2026-04-23 15:29 45.40620 -85.83158 638 ft 7 kts 350°
2026-04-23 15:30 45.40662 -85.83175 639 ft 5 kts 325°
2026-04-23 15:30 45.40687 -85.83172 639 ft 4 kts 91°
2026-04-23 15:30 45.40666 -85.83152 639 ft 0 kts 169°
2026-04-23 15:31 45.40641 -85.83146 638 ft 12 kts 168°
2026-04-23 15:31 45.40477 -85.83119 637 ft 36 kts 172°
2026-04-23 15:31 45.40093 -85.83050 668 ft 75 kts 168°
2026-04-23 15:31 45.39504 -85.82980 837 ft 93 kts 172°
2026-04-23 15:32 45.38824 -85.82903 1081 ft 103 kts 172°
2026-04-23 15:32 45.38093 -85.82786 1331 ft 106 kts 173°
2026-04-23 15:32 45.37365 -85.82732 1593 ft 104 kts 188°
2026-04-23 15:32 45.36665 -85.82887 1850 ft 100 kts 188°
2026-04-23 15:33 45.35980 -85.83008 2100 ft 101 kts 189°
2026-04-23 15:33 45.35269 -85.83128 2363 ft 105 kts 190°
2026-04-23 15:33 45.34536 -85.83246 2614 ft 105 kts 190°
2026-04-23 15:33 45.33810 -85.83361 2795 ft 106 kts 190°
2026-04-23 15:34 45.33075 -85.83475 2962 ft 107 kts 190°
2026-04-23 15:34 45.32337 -85.83589 3137 ft 107 kts 191°
2026-04-23 15:34 45.31595 -85.83704 3312 ft 108 kts 191°
2026-04-23 15:34 45.30857 -85.83818 3479 ft 108 kts 190°
2026-04-23 15:35 45.30111 -85.83933 3650 ft 108 kts 190°
2026-04-23 15:35 45.29364 -85.84049 3822 ft 108 kts 190°
2026-04-23 15:35 45.28618 -85.84163 3993 ft 108 kts 190°
2026-04-23 15:35 45.27874 -85.84278 4167 ft 108 kts 190°
2026-04-23 15:36 45.27130 -85.84392 4339 ft 107 kts 189°
2026-04-23 15:36 45.26392 -85.84506 4510 ft 107 kts 190°
2026-04-23 15:36 45.25656 -85.84620 4685 ft 106 kts 189°
2026-04-23 15:36 45.24921 -85.84732 4857 ft 106 kts 189°
2026-04-23 15:37 45.24191 -85.84845 5023 ft 105 kts 190°
2026-04-23 15:37 45.23462 -85.84957 5192 ft 106 kts 191°
2026-04-23 15:37 45.22727 -85.85070 5364 ft 106 kts 191°
2026-04-23 15:37 45.21990 -85.85184 5536 ft 107 kts 191°
2026-04-23 15:38 45.21255 -85.85297 5707 ft 106 kts 191°
2026-04-23 15:38 45.20523 -85.85409 5886 ft 106 kts 192°
2026-04-23 15:38 45.19795 -85.85521 6059 ft 105 kts 192°
2026-04-23 15:38 45.19072 -85.85632 6231 ft 104 kts 192°
2026-04-23 15:39 45.18354 -85.85742 6401 ft 103 kts 193°
2026-04-23 15:39 45.17644 -85.85851 6566 ft 103 kts 193°
2026-04-23 15:39 45.16918 -85.85964 6683 ft 107 kts 193°
2026-04-23 15:39 45.16166 -85.86080 6804 ft 110 kts 193°
2026-04-23 15:40 45.15397 -85.86198 6929 ft 112 kts 193°
2026-04-23 15:40 45.14617 -85.86319 7022 ft 116 kts 193°
2026-04-23 15:40 45.13787 -85.86448 7029 ft 124 kts 192°
2026-04-23 15:40 45.12911 -85.86583 7036 ft 129 kts 192°
2026-04-23 15:41 45.12006 -85.86721 7035 ft 132 kts 192°
2026-04-23 15:41 45.11081 -85.86862 7035 ft 135 kts 192°
2026-04-23 15:41 45.10159 -85.87003 7031 ft 136 kts 192°
2026-04-23 15:41 45.09218 -85.87147 7030 ft 136 kts 192°
2026-04-23 15:42 45.08275 -85.87291 7030 ft 136 kts 192°
2026-04-23 15:42 45.07332 -85.87435 7034 ft 136 kts 192°
2026-04-23 15:42 45.06388 -85.87579 7033 ft 136 kts 191°
2026-04-23 15:42 45.05445 -85.87724 7030 ft 136 kts 192°
2026-04-23 15:43 45.04503 -85.87868 7026 ft 136 kts 191°
2026-04-23 15:43 45.03560 -85.88012 7031 ft 136 kts 191°
2026-04-23 15:43 45.02618 -85.88156 7029 ft 136 kts 192°
2026-04-23 15:43 45.01675 -85.88300 7028 ft 136 kts 192°
2026-04-23 15:44 45.00734 -85.88444 7026 ft 136 kts 191°
2026-04-23 15:44 44.99793 -85.88587 7025 ft 136 kts 191°
2026-04-23 15:44 44.98853 -85.88731 7025 ft 136 kts 192°
2026-04-23 15:44 44.97912 -85.88874 7023 ft 136 kts 192°
2026-04-23 15:45 44.96974 -85.89017 7022 ft 136 kts 192°
2026-04-23 15:45 44.96035 -85.89161 7018 ft 136 kts 192°
2026-04-23 15:45 44.95095 -85.89304 7019 ft 136 kts 192°
2026-04-23 15:45 44.94154 -85.89448 7019 ft 136 kts 192°
2026-04-23 15:46 44.93197 -85.89594 7009 ft 140 kts 191°
2026-04-23 15:46 44.92235 -85.89740 7009 ft 138 kts 192°
2026-04-23 15:46 44.91270 -85.89741 6995 ft 143 kts 173°
2026-04-23 15:46 44.90421 -85.88928 6995 ft 155 kts 140°
2026-04-23 15:47 44.89722 -85.87798 7001 ft 155 kts 139°
2026-04-23 15:47 44.88987 -85.86688 7002 ft 156 kts 141°
2026-04-23 15:47 44.88235 -85.85596 7003 ft 155 kts 142°
2026-04-23 15:47 44.87480 -85.84514 6996 ft 154 kts 142°
2026-04-23 15:48 44.86720 -85.83427 7002 ft 157 kts 142°
2026-04-23 15:48 44.85957 -85.82332 6998 ft 156 kts 142°
2026-04-23 15:48 44.85201 -85.81247 7002 ft 156 kts 142°
2026-04-23 15:48 44.84439 -85.80156 6994 ft 155 kts 142°
2026-04-23 15:49 44.83677 -85.79066 7002 ft 158 kts 142°
2026-04-23 15:49 44.82909 -85.77966 6992 ft 156 kts 142°
2026-04-23 15:49 44.82151 -85.76881 6991 ft 155 kts 142°
2026-04-23 15:49 44.81397 -85.75803 6991 ft 154 kts 142°
2026-04-23 15:50 44.80644 -85.74725 6994 ft 155 kts 142°
2026-04-23 15:50 44.79879 -85.73635 6994 ft 157 kts 142°
2026-04-23 15:50 44.79110 -85.72538 6990 ft 157 kts 142°
2026-04-23 15:50 44.78348 -85.71448 6989 ft 155 kts 142°
2026-04-23 15:51 44.77590 -85.70365 6989 ft 155 kts 142°
2026-04-23 15:51 44.76829 -85.69281 6992 ft 156 kts 142°
2026-04-23 15:51 44.76061 -85.68187 6990 ft 158 kts 142°
2026-04-23 15:51 44.75284 -85.67080 6994 ft 160 kts 142°
2026-04-23 15:52 44.74501 -85.65964 6996 ft 159 kts 141°
2026-04-23 15:52 44.73715 -85.64844 7000 ft 162 kts 142°
2026-04-23 15:52 44.72921 -85.63716 6994 ft 161 kts 141°
2026-04-23 15:52 44.72137 -85.62596 6993 ft 160 kts 141°
2026-04-23 15:53 44.71358 -85.61488 6992 ft 159 kts 141°
2026-04-23 15:53 44.70584 -85.60386 6992 ft 158 kts 142°
2026-04-23 15:53 44.69815 -85.59296 6995 ft 160 kts 142°
2026-04-23 15:53 44.69034 -85.58186 6990 ft 159 kts 141°
2026-04-23 15:54 44.68258 -85.57081 6989 ft 158 kts 142°
2026-04-23 15:54 44.67483 -85.55985 6992 ft 159 kts 142°
2026-04-23 15:54 44.66697 -85.54886 6997 ft 160 kts 144°
2026-04-23 15:54 44.65866 -85.53830 6991 ft 161 kts 143°
2026-04-23 15:55 44.65070 -85.52727 6987 ft 160 kts 142°
2026-04-23 15:55 44.64278 -85.51654 6992 ft 157 kts 143°
2026-04-23 15:55 44.63485 -85.50599 6994 ft 157 kts 143°
2026-04-23 15:55 44.62692 -85.49545 6992 ft 157 kts 143°
2026-04-23 15:56 44.61899 -85.48490 6995 ft 157 kts 143°
2026-04-23 15:56 44.61109 -85.47440 7000 ft 156 kts 143°
2026-04-23 15:56 44.60314 -85.46390 7001 ft 157 kts 143°
2026-04-23 15:56 44.59516 -85.45329 6998 ft 158 kts 143°
2026-04-23 15:57 44.58712 -85.44258 7003 ft 160 kts 143°
2026-04-23 15:57 44.57910 -85.43192 7001 ft 159 kts 143°
2026-04-23 15:57 44.57111 -85.42133 6996 ft 157 kts 143°
2026-04-23 15:57 44.56319 -85.41082 6999 ft 158 kts 143°
2026-04-23 15:58 44.55525 -85.40032 7004 ft 156 kts 143°
2026-04-23 15:58 44.54740 -85.38992 7002 ft 156 kts 143°
2026-04-23 15:58 44.53952 -85.37950 7002 ft 155 kts 143°
2026-04-23 15:58 44.53162 -85.36905 7003 ft 157 kts 143°
2026-04-23 15:59 44.52371 -85.35856 7014 ft 156 kts 143°
2026-04-23 15:59 44.51589 -85.34821 7016 ft 154 kts 143°
2026-04-23 15:59 44.50801 -85.33782 7029 ft 158 kts 143°
2026-04-23 15:59 44.49987 -85.32711 7024 ft 163 kts 143°
2026-04-23 16:00 44.49176 -85.31632 7019 ft 159 kts 143°
2026-04-23 16:00 44.48370 -85.30569 7032 ft 161 kts 143°
2026-04-23 16:00 44.47547 -85.29484 7027 ft 163 kts 143°
2026-04-23 16:00 44.46731 -85.28405 7021 ft 158 kts 143°
2026-04-23 16:01 44.45942 -85.27361 7029 ft 155 kts 143°
2026-04-23 16:01 44.45156 -85.26327 7029 ft 155 kts 143°
2026-04-23 16:01 44.44367 -85.25290 7035 ft 158 kts 143°
2026-04-23 16:01 44.43568 -85.24236 7028 ft 157 kts 143°
2026-04-23 16:02 44.42772 -85.23188 7030 ft 157 kts 143°
2026-04-23 16:02 44.41978 -85.22143 7031 ft 157 kts 143°
2026-04-23 16:02 44.41175 -85.21092 7032 ft 160 kts 143°
2026-04-23 16:02 44.40362 -85.20017 7038 ft 161 kts 142°
2026-04-23 16:03 44.39824 -85.19306 7030 ft 160 kts 142°
2026-04-23 16:03 44.39016 -85.18245 7042 ft 161 kts 143°
2026-04-23 16:03 44.38199 -85.17173 7035 ft 162 kts 143°
2026-04-23 16:03 44.37121 -85.15756 7025 ft 158 kts 142°
2026-04-23 16:04 44.36325 -85.14709 7026 ft 156 kts 143°
2026-04-23 16:04 44.35534 -85.13674 7023 ft 156 kts 142°
2026-04-23 16:04 44.34997 -85.12970 7031 ft 158 kts 143°
2026-04-23 16:04 44.34188 -85.11911 7023 ft 159 kts 142°
2026-04-23 16:05 44.33382 -85.10852 7026 ft 159 kts 142°
2026-04-23 16:05 44.32582 -85.09802 7029 ft 157 kts 143°
2026-04-23 16:05 44.31786 -85.08761 7026 ft 157 kts 142°
2026-04-23 16:05 44.31004 -85.07737 7036 ft 156 kts 142°
2026-04-23 16:06 44.30195 -85.06680 7033 ft 159 kts 142°
2026-04-23 16:06 44.29396 -85.05635 7041 ft 160 kts 142°
2026-04-23 16:06 44.28584 -85.04572 7030 ft 159 kts 142°
2026-04-23 16:06 44.27785 -85.03524 7030 ft 157 kts 142°
2026-04-23 16:07 44.26991 -85.02488 7044 ft 157 kts 143°
2026-04-23 16:07 44.26186 -85.01439 7052 ft 161 kts 142°
2026-04-23 16:07 44.25367 -85.00369 7043 ft 160 kts 142°
2026-04-23 16:07 44.24556 -84.99310 7041 ft 159 kts 142°
2026-04-23 16:08 44.23740 -84.98246 7054 ft 163 kts 142°
2026-04-23 16:08 44.22909 -84.97164 7051 ft 163 kts 142°
2026-04-23 16:08 44.22086 -84.96087 7053 ft 162 kts 142°
2026-04-23 16:08 44.21263 -84.95014 7053 ft 161 kts 142°
2026-04-23 16:09 44.20446 -84.93951 7044 ft 160 kts 142°
2026-04-23 16:09 44.19640 -84.92902 7045 ft 157 kts 142°
2026-04-23 16:09 44.18843 -84.91864 7042 ft 156 kts 142°
2026-04-23 16:09 44.18049 -84.90830 7043 ft 157 kts 142°
2026-04-23 16:10 44.17250 -84.89794 7041 ft 157 kts 142°
2026-04-23 16:10 44.16454 -84.88759 7048 ft 157 kts 142°
2026-04-23 16:10 44.15653 -84.87718 7043 ft 157 kts 142°
2026-04-23 16:10 44.14853 -84.86676 7047 ft 157 kts 142°
2026-04-23 16:11 44.14054 -84.85638 7054 ft 158 kts 142°
2026-04-23 16:11 44.13246 -84.84592 7053 ft 160 kts 142°
2026-04-23 16:11 44.12431 -84.83535 7051 ft 160 kts 141°
2026-04-23 16:11 44.11625 -84.82487 7047 ft 158 kts 141°
2026-04-23 16:12 44.10825 -84.81450 7051 ft 157 kts 142°
2026-04-23 16:12 44.10025 -84.80415 7049 ft 158 kts 142°
2026-04-23 16:12 44.09223 -84.79376 7051 ft 157 kts 141°
2026-04-23 16:12 44.08424 -84.78340 7051 ft 157 kts 141°
2026-04-23 16:13 44.07636 -84.77320 7049 ft 157 kts 141°
2026-04-23 16:13 44.06036 -84.75250 7049 ft 157 kts 141°
2026-04-23 16:13 44.05237 -84.74217 7050 ft 157 kts 141°
2026-04-23 16:14 44.04438 -84.73184 7048 ft 157 kts 141°
2026-04-23 16:14 44.03636 -84.72149 7051 ft 158 kts 141°
2026-04-23 16:14 44.02832 -84.71109 7049 ft 158 kts 141°
2026-04-23 16:14 44.02024 -84.70066 7051 ft 159 kts 141°
2026-04-23 16:15 44.01214 -84.69021 7055 ft 159 kts 142°
2026-04-23 16:15 44.00403 -84.67975 7053 ft 159 kts 142°
2026-04-23 16:15 43.99592 -84.66930 7054 ft 159 kts 141°
2026-04-23 16:15 43.98782 -84.65885 7053 ft 159 kts 141°
2026-04-23 16:16 43.97975 -84.64844 7056 ft 159 kts 141°
2026-04-23 16:16 43.97156 -84.63792 7058 ft 161 kts 141°
2026-04-23 16:16 43.96323 -84.62720 7053 ft 165 kts 141°
2026-04-23 16:16 43.95485 -84.61640 7051 ft 164 kts 141°
2026-04-23 16:17 43.94653 -84.60569 7058 ft 163 kts 141°
2026-04-23 16:17 43.93822 -84.59497 7052 ft 164 kts 141°
2026-04-23 16:17 43.92981 -84.58421 7065 ft 167 kts 141°
2026-04-23 16:17 43.92123 -84.57320 7053 ft 167 kts 141°
2026-04-23 16:18 43.91278 -84.56233 7047 ft 164 kts 141°
2026-04-23 16:18 43.90448 -84.55163 7054 ft 162 kts 141°
2026-04-23 16:18 43.89622 -84.54104 7044 ft 161 kts 141°
2026-04-23 16:18 43.88802 -84.53054 7055 ft 162 kts 141°
2026-04-23 16:19 43.87964 -84.51978 7056 ft 166 kts 141°
2026-04-23 16:19 43.87112 -84.50887 7050 ft 166 kts 141°
2026-04-23 16:19 43.86269 -84.49808 7048 ft 163 kts 141°
2026-04-23 16:19 43.85443 -84.48748 7057 ft 161 kts 141°
2026-04-23 16:20 43.84606 -84.47680 7051 ft 165 kts 141°
2026-04-23 16:20 43.83769 -84.46605 7049 ft 163 kts 141°
2026-04-23 16:20 43.82940 -84.45546 7051 ft 162 kts 141°
2026-04-23 16:20 43.82127 -84.44507 7045 ft 161 kts 141°
2026-04-23 16:21 43.81299 -84.43448 7049 ft 159 kts 141°
2026-04-23 16:21 43.80487 -84.42410 7048 ft 159 kts 141°
2026-04-23 16:21 43.79675 -84.41374 7054 ft 159 kts 141°
2026-04-23 16:21 43.78875 -84.40353 7055 ft 159 kts 141°
2026-04-23 16:22 43.78061 -84.39314 7057 ft 160 kts 141°
2026-04-23 16:22 43.77238 -84.38264 7060 ft 163 kts 141°
2026-04-23 16:22 43.76409 -84.37208 7058 ft 161 kts 141°
2026-04-23 16:22 43.75584 -84.36154 7069 ft 164 kts 141°
2026-04-23 16:23 43.74733 -84.35071 7055 ft 167 kts 141°
2026-04-23 16:23 43.73891 -84.33998 7055 ft 163 kts 141°
2026-04-23 16:23 43.73062 -84.32942 7070 ft 164 kts 141°
2026-04-23 16:23 43.72214 -84.31866 7041 ft 166 kts 141°
2026-04-23 16:24 43.71364 -84.30781 6991 ft 165 kts 141°
2026-04-23 16:24 43.70530 -84.29719 6990 ft 162 kts 141°
2026-04-23 16:24 43.69706 -84.28672 6991 ft 161 kts 141°
2026-04-23 16:24 43.68884 -84.27628 6988 ft 160 kts 141°
2026-04-23 16:25 43.68066 -84.26589 6985 ft 160 kts 141°
2026-04-23 16:25 43.67247 -84.25550 6987 ft 160 kts 141°
2026-04-23 16:25 43.66429 -84.24511 6990 ft 160 kts 141°
2026-04-23 16:25 43.65598 -84.23457 6996 ft 164 kts 141°
2026-04-23 16:26 43.64746 -84.22381 6988 ft 166 kts 141°
2026-04-23 16:26 43.63903 -84.21308 6986 ft 164 kts 141°
2026-04-23 16:26 43.63066 -84.20245 6982 ft 163 kts 141°
2026-04-23 16:26 43.62236 -84.19197 6982 ft 161 kts 141°
2026-04-23 16:27 43.61411 -84.18152 6983 ft 161 kts 140°
2026-04-23 16:27 43.60576 -84.17093 6982 ft 164 kts 141°
2026-04-23 16:27 43.59738 -84.16034 6999 ft 162 kts 141°
2026-04-23 16:27 43.58907 -84.14983 7006 ft 161 kts 141°
2026-04-23 16:28 43.58074 -84.13930 7004 ft 164 kts 141°
2026-04-23 16:28 43.57235 -84.12871 7007 ft 163 kts 141°
2026-04-23 16:28 43.56400 -84.11814 7006 ft 163 kts 141°
2026-04-23 16:28 43.55566 -84.10763 7006 ft 161 kts 141°
2026-04-23 16:29 43.54737 -84.09715 6992 ft 161 kts 141°
2026-04-23 16:29 43.53909 -84.08670 7003 ft 162 kts 141°
2026-04-23 16:29 43.53054 -84.07665 6986 ft 160 kts 150°
2026-04-23 16:29 43.52063 -84.07043 7003 ft 156 kts 162°
2026-04-23 16:30 43.51055 -84.06479 7005 ft 157 kts 161°
2026-04-23 16:30 43.50044 -84.05890 7006 ft 158 kts 161°
2026-04-23 16:30 43.49042 -84.05299 7009 ft 159 kts 161°
2026-04-23 16:30 43.48028 -84.04699 7004 ft 158 kts 161°
2026-04-23 16:31 43.47020 -84.04106 7007 ft 158 kts 161°
2026-04-23 16:31 43.46001 -84.03508 7007 ft 160 kts 161°
2026-04-23 16:31 43.44979 -84.02902 7008 ft 160 kts 160°
2026-04-23 16:31 43.43947 -84.02294 7008 ft 162 kts 161°
2026-04-23 16:32 43.42912 -84.01686 7003 ft 160 kts 161°
2026-04-23 16:32 43.41893 -84.01088 6989 ft 159 kts 160°
2026-04-23 16:32 43.40877 -84.00490 6986 ft 158 kts 161°
2026-04-23 16:32 43.39868 -83.99896 6986 ft 157 kts 161°
2026-04-23 16:33 43.38857 -83.99301 6986 ft 159 kts 161°
2026-04-23 16:33 43.37844 -83.98706 6985 ft 158 kts 161°
2026-04-23 16:33 43.36835 -83.98112 6985 ft 158 kts 161°
2026-04-23 16:33 43.35823 -83.97519 6983 ft 158 kts 161°
2026-04-23 16:34 43.34801 -83.96920 6991 ft 162 kts 161°
2026-04-23 16:34 43.33761 -83.96310 6993 ft 163 kts 161°
2026-04-23 16:34 43.32718 -83.95699 6994 ft 163 kts 161°
2026-04-23 16:34 43.31680 -83.95089 6990 ft 162 kts 161°
2026-04-23 16:35 43.30642 -83.94481 6991 ft 162 kts 161°
2026-04-23 16:35 43.29600 -83.93870 6988 ft 163 kts 161°
2026-04-23 16:35 43.28557 -83.93260 6991 ft 164 kts 161°
2026-04-23 16:35 43.27513 -83.92648 6988 ft 162 kts 160°
2026-04-23 16:36 43.26477 -83.92039 6994 ft 163 kts 161°
2026-04-23 16:36 43.25422 -83.91427 6989 ft 165 kts 161°
2026-04-23 16:36 43.24364 -83.90808 6991 ft 165 kts 161°
2026-04-23 16:36 43.23321 -83.90197 6990 ft 162 kts 161°
2026-04-23 16:37 43.22290 -83.89593 6984 ft 160 kts 161°
2026-04-23 16:37 43.21266 -83.88996 6980 ft 160 kts 161°
2026-04-23 16:37 43.20249 -83.88403 6981 ft 158 kts 161°
2026-04-23 16:37 43.19230 -83.87806 6982 ft 160 kts 161°
2026-04-23 16:38 43.18198 -83.87205 6986 ft 162 kts 161°
2026-04-23 16:38 43.17167 -83.86604 6985 ft 161 kts 161°
2026-04-23 16:38 43.16135 -83.86001 6997 ft 163 kts 161°
2026-04-23 16:38 43.15090 -83.85395 6988 ft 162 kts 161°
2026-04-23 16:39 43.14055 -83.84794 6991 ft 162 kts 161°
2026-04-23 16:39 43.13021 -83.84189 6995 ft 161 kts 161°
2026-04-23 16:39 43.11991 -83.83588 6988 ft 160 kts 161°
2026-04-23 16:39 43.10969 -83.82992 6990 ft 160 kts 161°
2026-04-23 16:40 43.09954 -83.82404 6988 ft 161 kts 161°
2026-04-23 16:40 43.08927 -83.81807 6998 ft 160 kts 161°
2026-04-23 16:40 43.07891 -83.81203 6995 ft 162 kts 161°
2026-04-23 16:40 43.06846 -83.80599 7001 ft 164 kts 161°
2026-04-23 16:41 43.05799 -83.79989 7006 ft 164 kts 161°
2026-04-23 16:41 43.04750 -83.79380 6999 ft 163 kts 161°
2026-04-23 16:41 43.03703 -83.78773 6996 ft 163 kts 161°
2026-04-23 16:41 43.02668 -83.78169 7001 ft 162 kts 161°
2026-04-23 16:42 43.01629 -83.77569 6997 ft 162 kts 162°
2026-04-23 16:42 43.00580 -83.76962 7003 ft 166 kts 161°
2026-04-23 16:42 42.99516 -83.76346 6998 ft 166 kts 161°
2026-04-23 16:42 42.98461 -83.75733 6999 ft 163 kts 161°
2026-04-23 16:43 42.97416 -83.75127 6998 ft 163 kts 162°
2026-04-23 16:43 42.96358 -83.74604 6978 ft 160 kts 173°
2026-04-23 16:43 42.95264 -83.74369 6999 ft 160 kts 177°
2026-04-23 16:43 42.94158 -83.74131 6998 ft 160 kts 176°
2026-04-23 16:44 42.93089 -83.73883 6941 ft 154 kts 176°
2026-04-23 16:44 42.92014 -83.73641 6769 ft 158 kts 176°
2026-04-23 16:44 42.90929 -83.73395 6601 ft 156 kts 176°
2026-04-23 16:44 42.89867 -83.73154 6434 ft 154 kts 176°
2026-04-23 16:45 42.88812 -83.72919 6252 ft 153 kts 176°
2026-04-23 16:45 42.87771 -83.72679 6092 ft 151 kts 176°
2026-04-23 16:45 42.86732 -83.72443 5933 ft 152 kts 176°
2026-04-23 16:45 42.85695 -83.72210 5784 ft 151 kts 176°
2026-04-23 16:46 42.84665 -83.71977 5627 ft 149 kts 176°
2026-04-23 16:46 42.83646 -83.71747 5477 ft 148 kts 176°
2026-04-23 16:46 42.82632 -83.71518 5325 ft 147 kts 176°
2026-04-23 16:46 42.81620 -83.71290 5181 ft 147 kts 175°
2026-04-23 16:47 42.80604 -83.71060 5032 ft 149 kts 175°
2026-04-23 16:47 42.79575 -83.70823 4894 ft 153 kts 175°
2026-04-23 16:47 42.78513 -83.70595 4741 ft 153 kts 175°
2026-04-23 16:47 42.77477 -83.70353 4589 ft 150 kts 174°
2026-04-23 16:48 42.76457 -83.70119 4427 ft 147 kts 175°
2026-04-23 16:48 42.75452 -83.69898 4277 ft 145 kts 175°
2026-04-23 16:48 42.74454 -83.69677 4133 ft 145 kts 174°
2026-04-23 16:48 42.73461 -83.69543 3983 ft 143 kts 182°
2026-04-23 16:49 42.72797 -83.69506 3881 ft 145 kts 180°
2026-04-23 16:49 42.71461 -83.69421 3682 ft 142 kts 180°
2026-04-23 16:49 42.70481 -83.69360 3532 ft 140 kts 180°
2026-04-23 16:49 42.69510 -83.69300 3387 ft 139 kts 179°
2026-04-23 16:50 42.68529 -83.69226 3262 ft 140 kts 180°
2026-04-23 16:50 42.67581 -83.69190 3137 ft 133 kts 180°
2026-04-23 16:50 42.66680 -83.69131 2996 ft 127 kts 177°
2026-04-23 16:50 42.65880 -83.68591 2829 ft 138 kts 135°
2026-04-23 16:51 42.65499 -83.67379 2679 ft 141 kts 97°
2026-04-23 16:51 42.65583 -83.66141 2695 ft 127 kts 84°
2026-04-23 16:51 42.65695 -83.65002 2679 ft 116 kts 84°
2026-04-23 16:51 42.65780 -83.63963 2686 ft 106 kts 86°
2026-04-23 16:52 42.65817 -83.63310 2686 ft 103 kts 88°
2026-04-23 16:52 42.65860 -83.62328 2706 ft 109 kts 89°
2026-04-23 16:52 42.65900 -83.61271 2689 ft 112 kts 89°
2026-04-23 16:52 42.65937 -83.60290 2687 ft 96 kts 89°
2026-04-23 16:53 42.65967 -83.59418 2689 ft 90 kts 89°
2026-04-23 16:53 42.66004 -83.58301 2688 ft 91 kts 89°
2026-04-23 16:53 42.66022 -83.57716 2696 ft 94 kts 89°
2026-04-23 16:53 42.66051 -83.56801 2708 ft 100 kts 89°
2026-04-23 16:54 42.66081 -83.55854 2710 ft 101 kts 89°
2026-04-23 16:54 42.66110 -83.54904 2708 ft 99 kts 89°
2026-04-23 16:54 42.66139 -83.53975 2705 ft 98 kts 88°
2026-04-23 16:54 42.66172 -83.53000 2541 ft 108 kts 88°
2026-04-23 16:55 42.66211 -83.51969 2358 ft 109 kts 88°
2026-04-23 16:55 42.66226 -83.50939 2117 ft 110 kts 93°
2026-04-23 16:55 42.66248 -83.49927 1993 ft 99 kts 87°
2026-04-23 16:55 42.66278 -83.49031 1858 ft 94 kts 89°
2026-04-23 16:56 42.66331 -83.48164 1755 ft 89 kts 87°
2026-04-23 16:56 42.66378 -83.47337 1678 ft 85 kts 90°
2026-04-23 16:56 42.66389 -83.46551 1610 ft 83 kts 92°
2026-04-23 16:56 42.66388 -83.45773 1512 ft 81 kts 92°
2026-04-23 16:57 42.66421 -83.45011 1374 ft 80 kts 90°
2026-04-23 16:57 42.66443 -83.44273 1197 ft 75 kts 92°
2026-04-23 16:57 42.66458 -83.43592 1045 ft 69 kts 92°
2026-04-23 16:57 42.66474 -83.43006 985 ft 53 kts 89°
2026-04-23 16:58 42.66488 -83.42580 983 ft 39 kts 88°
2026-04-23 16:58 42.66496 -83.42352 981 ft 20 kts 90°
2026-04-23 16:58 42.66450 -83.42284 980 ft 1 kts 181°
2026-04-23 16:59 42.66449 -83.42284 979 ft 1 kts 181°
2026-04-23 16:59 42.66416 -83.42268 982 ft 10 kts 117°
2026-04-23 16:59 42.66397 -83.42175 987 ft 10 kts 152°
2026-04-23 16:59 42.66327 -83.42152 981 ft 12 kts 115°
2026-04-23 17:00 42.66320 -83.42046 979 ft 8 kts 90°
2026-04-23 17:00 42.66320 -83.42041 979 ft 0 kts 84°